[[{"header":{"parameterUnit":"m.s-1","parameterCategory":1,"la1":30.2991,"la2":30.254,"lo1":-89.0895,"lo2":-89.0444,"dy":0.0017,"dx":0.0017,"nx":28,"ny":28,"refTime":"2025-05-28T21:00:00:Z","depth":0,"parameterNumber":2,"parameterNumberName":"U-component_of_WINDS"},"data":[0,0,0,0,0,0,0,0,0,0,0,0,0,0,0,0,0,0,0,0,0,0,0,0,0,0,0,0,0,0,0,0,0,0,0,0,0,0,0,0,0,0,0,0,0,0,0,0,0,0,0,0,0,0,0,0,0,0,-0.9215,-0.9214,0,-0.9095,-0.9093,-0.9092,-0.9018,-0.9018,-0.9017,-0.9017,-0.8891,-0.8888,-0.8885,0,0,0,0,0,0,0,0,0,0,0,0,0,-0.938,-0.9378,-0.9216,-0.9214,-0.9213,-0.9095,-0.9093,-0.9091,-0.9018,-0.9018,-0.9017,-0.9017,-0.8892,-0.8889,-0.8885,0,0,0,0,0,0,0,0,0,0,0,0,0,-0.9289,-0.9377,-0.9216,-0.9162,-0.9156,-0.9095,-0.9093,-0.9091,-0.9018,-0.9018,-0.9017,-0.9017,-0.8893,-0.8889,-0.8884,-0.8867,0,0,-0.8871,-0.8869,0,0,0,0,0,0,0,0,-0.9294,-0.9283,-0.9171,-0.9165,-0.9159,-0.9071,-0.9105,-0.9016,-0.9019,-0.9071,-0.9017,-0.9017,-0.8951,-0.8942,-0.892,-0.8861,-0.8856,-0.887,-0.8867,-0.8865,-0.8864,0,0,0,0,0,0,0,-0.9301,-0.9288,-0.9168,-0.917,-0.9162,-0.9143,-0.9129,-0.9088,-0.9015,-0.9066,-0.906,-0.9047,-0.8948,-0.8925,-0.8917,-0.8854,-0.887,-0.8866,-0.8863,-0.8862,-0.8773,-0.8774,0,0,0,0,0,0,-0.9316,-0.9294,-0.9171,-0.9164,-0.9227,-0.914,-0.9125,-0.91,-0.9016,-0.9002,-0.9048,-0.9044,-0.8933,-0.8922,-0.8912,-0.8885,-0.8866,-0.8861,-0.8859,-0.8773,-0.8773,-0.8774,0,0,0,0,0,0,-0.932,-0.9306,-0.9176,-0.9227,-0.9209,-0.9138,-0.911,-0.9097,-0.9075,-0.9002,-0.8988,-0.9038,-0.8932,-0.8919,-0.8879,-0.888,-0.8859,-0.8855,-0.8773,-0.8773,-0.8774,-0.8832,0,0,0,0,0,0,-0.9325,-0.9308,-0.9301,-0.9228,-0.9207,-0.9146,-0.911,-0.9096,-0.9067,-0.9061,-0.8989,-0.8976,-0.8931,-0.8886,-0.8874,-0.8873,-0.8852,-0.8772,-0.8773,-0.8773,-0.883,-0.8835,-0.8839,0,0,0,0,0,-0.9331,-0.9322,-0.9301,-0.9287,-0.9197,-0.9146,-0.9134,-0.9082,-0.9068,-0.906,-0.9013,-0.8979,-0.8882,-0.8882,-0.8869,-0.8866,-0.8772,-0.8773,-0.8773,-0.8828,-0.8834,-0.8839,0,0,0,0,0,0,-0.9397,-0.9312,-0.9287,-0.9255,-0.9208,-0.9134,-0.9122,-0.909,-0.9046,-0.9043,-0.8979,-0.8964,-0.893,-0.8894,-0.8896,-0.8845,-0.8823,-0.8821,-0.8869,-0.8874,-0.8878,-0.8887,-0.8848,0,0,0,0,0,-0.9408,-0.9374,-0.9301,-0.9279,-0.9257,-0.9194,-0.917,-0.9134,-0.9083,-0.9063,-0.9013,-0.8964,-0.8923,-0.8897,-0.8854,-0.8825,-0.8807,-0.8816,-0.8821,-0.8825,-0.8824,-0.8804,-0.8807,-0.8777,-0.8777,-0.8776,0,0,-0.9429,-0.9379,-0.9361,-0.9291,-0.9251,-0.9217,-0.9178,-0.9144,-0.9117,-0.9057,-0.9016,-0.8979,-0.892,-0.8885,-0.8867,-0.8854,-0.8828,-0.8826,-0.883,-0.8826,-0.8805,-0.8808,-0.8811,-0.8777,-0.8777,-0.8777,0,0,-0.9451,-0.941,-0.9387,-0.9347,-0.9287,-0.9245,-0.924,-0.917,-0.9143,-0.9101,-0.9055,-0.9022,-0.8953,-0.8912,-0.8883,-0.8889,-0.8855,-0.8877,-0.89,-0.8882,-0.8884,-0.8886,-0.8887,-0.8888,-0.8877,-0.8877,-0.8877,0,-0.9485,-0.9432,-0.9379,-0.9346,-0.9316,-0.9262,-0.9237,-0.9201,-0.913,-0.911,-0.9097,-0.9008,-0.8964,-0.8919,-0.892,-0.8899,-0.8889,-0.8885,-0.8888,-0.889,-0.889,-0.889,-0.8891,-0.888,-0.8879,-0.8879,-0.8879,0,-0.9477,-0.9441,-0.9429,-0.9362,-0.9331,-0.9303,-0.9244,-0.9218,-0.9185,-0.9145,-0.9102,-0.9049,-0.8994,-0.8981,-0.8948,-0.893,-0.8924,-0.8901,-0.8877,-0.8897,-0.8896,-0.8896,-0.8884,-0.8883,-0.8882,-0.8881,0,0,-0.9536,-0.944,-0.9436,-0.9405,-0.9334,-0.9305,-0.9274,-0.9221,-0.92,-0.9153,-0.9125,-0.9067,-0.9045,-0.9011,-0.8973,-0.8958,-0.8964,-0.8936,-0.8933,-0.8942,-0.894,-0.8956,-0.8957,-0.8942,-0.8942,-0.8942,-0.8944,0,-0.9546,-0.9488,-0.9438,-0.9398,-0.9363,-0.9311,-0.9284,-0.9237,-0.9198,-0.9162,-0.9119,-0.9079,-0.9053,-0.9032,-0.9015,-0.8968,-0.8963,-0.8967,-0.8914,-0.8912,-0.8929,-0.8957,-0.8975,-0.8979,-0.8943,-0.8943,-0.8943,0,-0.955,-0.9505,-0.9462,-0.9394,-0.9378,-0.9354,-0.9301,-0.9268,-0.9214,-0.9187,-0.915,-0.911,-0.9074,-0.9056,-0.9004,-0.9008,-0.8983,-0.8957,-0.8956,-0.8947,-0.8928,-0.8948,-0.8979,-0.898,-0.8942,-0.8942,-0.8942,0,-0.9595,-0.9525,-0.9489,-0.9464,-0.9385,-0.9369,-0.9335,-0.9281,-0.9252,-0.9206,-0.9186,-0.9136,-0.9109,-0.9071,-0.9018,-0.901,-0.8972,-0.8949,-0.8947,-0.8948,-0.894,-0.8941,-0.8966,-0.8927,-0.8927,-0.8927,-0.8927,0,-0.9611,-0.9586,-0.9508,-0.9487,-0.9457,-0.94,-0.9372,-0.9333,-0.9285,-0.9254,-0.9206,-0.9177,-0.9111,-0.9074,-0.9033,-0.8996,-0.8984,-0.896,-0.8949,-0.8963,-0.8966,-0.8945,-0.8943,-0.8927,-0.8927,-0.8927,-0.8927,0,-0.9656,-0.9604,-0.9561,-0.949,-0.9471,-0.9452,-0.939,-0.9366,-0.9325,-0.9286,-0.9274,-0.9209,-0.9163,-0.9108,-0.9044,-0.9016,-0.8982,-0.8967,-0.9001,-0.8994,-0.8994,-0.8995,-0.9006,-0.9004,-0.8968,-0.8969,-0.8969,0,-0.9669,-0.9649,-0.9575,-0.9551,-0.9519,-0.9481,-0.9451,-0.9394,-0.9365,-0.9302,-0.9285,-0.9236,-0.9194,-0.9123,-0.907,-0.902,-0.9002,-0.901,-0.8995,-0.9009,-0.9001,-0.9002,-0.8999,-0.9013,-0.9014,-0.9015,-0.9015,0,-0.9697,-0.9672,-0.9632,-0.9582,-0.9548,-0.9506,-0.9462,-0.9445,-0.9378,-0.9348,-0.9301,-0.9268,-0.9203,-0.9155,-0.9099,-0.9063,-0.9027,-0.9021,-0.9017,-0.9031,-0.9051,-0.9038,-0.901,-0.902,-0.902,-0.9019,-0.9019,-0.9019,-0.9725,-0.9704,-0.9649,-0.9605,-0.9566,-0.9526,-0.95,-0.9455,-0.9415,-0.9358,-0.9327,-0.9281,-0.9226,-0.9147,-0.9113,-0.9075,-0.9062,-0.9058,-0.9056,-0.9055,-0.9059,-0.9058,-0.9064,-0.9064,-0.9064,-0.9064,-0.9064,0,-0.9749,-0.9711,-0.9672,-0.9611,-0.9577,-0.9548,-0.9497,-0.947,-0.943,-0.9382,-0.9341,-0.9287,-0.9239,-0.9182,-0.9131,-0.9111,-0.9094,-0.9099,-0.9099,-0.9091,-0.9074,-0.9081,-0.9114,-0.9114,-0.9114,-0.9114,-0.9114,-0.9114,-0.9758,-0.972,-0.9689,-0.9631,-0.9592,-0.9547,-0.952,-0.9482,-0.9444,-0.9385,-0.9346,-0.9309,-0.9257,-0.9202,-0.9156,-0.9141,-0.9123,-0.9134,-0.9113,-0.9097,-0.9093,-0.9089,-0.9095,-0.9131,-0.9131,-0.9133,-0.9133,-0.9133]},{"header":{"parameterUnit":"m.s-1","parameterCategory":1,"la1":30.2991,"la2":30.254,"lo1":-89.0895,"lo2":-89.0444,"dy":0.0017,"dx":0.0017,"nx":28,"ny":28,"refTime":"2025-05-28T21:00:00:Z","depth":0,"parameterNumber":3,"parameterNumberName":"V-component_of_WINDS"},"data":[0,0,0,0,0,0,0,0,0,0,0,0,0,0,0,0,0,0,0,0,0,0,0,0,0,0,0,0,0,0,0,0,0,0,0,0,0,0,0,0,0,0,0,0,0,0,0,0,0,0,0,0,0,0,0,0,0,0,3.6826,3.6826,0,3.6848,3.6849,3.6849,3.6895,3.6896,3.6897,3.6898,3.6916,3.6916,3.6916,0,0,0,0,0,0,0,0,0,0,0,0,0,3.682,3.682,3.6826,3.6826,3.6827,3.6848,3.6849,3.6849,3.6895,3.6896,3.6898,3.6899,3.6917,3.6916,3.6916,0,0,0,0,0,0,0,0,0,0,0,0,0,3.6831,3.682,3.6826,3.6853,3.6855,3.6848,3.6849,3.6849,3.6895,3.6896,3.6898,3.6899,3.6917,3.6916,3.6916,3.6883,0,0,3.6914,3.6913,0,0,0,0,0,0,0,0,3.683,3.6831,3.6848,3.6851,3.6854,3.6871,3.6853,3.686,3.6895,3.688,3.6898,3.69,3.69,3.6901,3.6902,3.6884,3.6885,3.6914,3.6913,3.6913,3.6913,0,0,0,0,0,0,0,3.6829,3.683,3.6835,3.6849,3.6852,3.6862,3.6865,3.6855,3.6881,3.6881,3.6885,3.6887,3.6901,3.6902,3.6902,3.6885,3.6914,3.6913,3.6913,3.6913,3.6844,3.6842,0,0,0,0,0,0,3.6825,3.6829,3.6834,3.6836,3.6845,3.6861,3.6865,3.6864,3.6882,3.6886,3.6886,3.6889,3.6902,3.6903,3.6903,3.6867,3.6913,3.6913,3.6912,3.6845,3.6843,3.6842,0,0,0,0,0,0,3.6825,3.6825,3.6833,3.6833,3.6835,3.686,3.6858,3.6863,3.6864,3.6885,3.689,3.6882,3.6903,3.6904,3.6889,3.6869,3.6912,3.6912,3.6847,3.6845,3.6843,3.6795,0,0,0,0,0,0,3.6825,3.6825,3.6814,3.6833,3.6835,3.6819,3.6857,3.6863,3.6863,3.6868,3.6882,3.6886,3.6905,3.6889,3.6888,3.6869,3.6911,3.6849,3.6846,3.6843,3.6798,3.6791,3.6785,0,0,0,0,0,3.6824,3.6798,3.6813,3.6813,3.6822,3.6818,3.6819,3.6842,3.6862,3.685,3.6864,3.6886,3.6871,3.6887,3.6886,3.6866,3.685,3.6847,3.6844,3.6801,3.6793,3.6785,0,0,0,0,0,0,3.6774,3.6801,3.6818,3.6797,3.6805,3.6826,3.6812,3.6832,3.6833,3.6837,3.6865,3.6867,3.6848,3.6856,3.6873,3.6837,3.6864,3.686,3.6832,3.6824,3.6818,3.6816,3.6911,0,0,0,0,0,3.6761,3.6757,3.678,3.676,3.6763,3.6787,3.6786,3.6803,3.6812,3.6815,3.6827,3.6834,3.6831,3.6828,3.6826,3.68,3.6804,3.6786,3.6779,3.6774,3.677,3.6757,3.6749,3.6831,3.6831,3.6831,0,0,3.6733,3.6747,3.6742,3.675,3.6758,3.6752,3.6789,3.6781,3.6777,3.6813,3.68,3.6809,3.6818,3.6797,3.6789,3.6803,3.6749,3.677,3.6765,3.6764,3.6753,3.6745,3.6738,3.6829,3.6829,3.6829,0,0,3.6679,3.669,3.6674,3.6682,3.6695,3.6711,3.6708,3.6726,3.6734,3.6721,3.6749,3.6744,3.6738,3.6743,3.6745,3.6695,3.6715,3.6694,3.6659,3.6646,3.664,3.6634,3.6617,3.661,3.669,3.669,3.669,0,3.6642,3.6636,3.6663,3.6654,3.6657,3.6692,3.6676,3.6682,3.6692,3.6693,3.6709,3.6703,3.6712,3.6693,3.6681,3.6681,3.6678,3.6692,3.6639,3.6634,3.6629,3.6612,3.6605,3.6687,3.6688,3.6688,3.6688,0,3.659,3.6585,3.6571,3.6583,3.6584,3.6571,3.6596,3.6593,3.6611,3.6625,3.6612,3.6624,3.6625,3.6622,3.6638,3.6606,3.6614,3.6634,3.6662,3.6618,3.6603,3.6597,3.6683,3.6684,3.6685,3.6686,0,0,3.6504,3.6533,3.6527,3.6533,3.655,3.6546,3.6535,3.6539,3.6536,3.6543,3.6534,3.6529,3.6548,3.655,3.6568,3.6556,3.6516,3.6578,3.6578,3.6566,3.6481,3.6466,3.6458,3.653,3.6529,3.6528,3.648,0,3.6454,3.6438,3.6463,3.6441,3.6437,3.6471,3.6462,3.647,3.6484,3.6481,3.6495,3.6492,3.6517,3.6519,3.6509,3.6523,3.6499,3.6527,3.6521,3.6521,3.6518,3.645,3.6434,3.6388,3.6475,3.6474,3.6473,0,3.6393,3.6399,3.6377,3.6397,3.6396,3.6387,3.6393,3.6391,3.6401,3.6412,3.6415,3.6437,3.6426,3.6454,3.6441,3.6459,3.6458,3.6464,3.6463,3.6463,3.6494,3.6448,3.6374,3.6367,3.6464,3.6464,3.6465,0,3.6333,3.6335,3.6322,3.6327,3.6349,3.6342,3.6351,3.6364,3.6365,3.6369,3.637,3.6372,3.6373,3.6375,3.6396,3.6414,3.6379,3.6409,3.6387,3.6386,3.6378,3.6378,3.6302,3.6377,3.6377,3.6377,3.6378,0,3.6274,3.6259,3.6296,3.6288,3.6273,3.6301,3.6285,3.6297,3.6308,3.6302,3.6331,3.6325,3.6354,3.6351,3.6367,3.6353,3.6353,3.6361,3.6365,3.6358,3.6357,3.6358,3.6361,3.6376,3.6376,3.6376,3.6377,0,3.6203,3.6227,3.6216,3.6239,3.6245,3.6232,3.6252,3.6245,3.6261,3.6254,3.6254,3.6278,3.6276,3.6297,3.6299,3.631,3.6288,3.6298,3.6285,3.6288,3.6265,3.6267,3.6187,3.6178,3.6259,3.6258,3.6257,0,3.6164,3.6154,3.6177,3.6177,3.6185,3.6183,3.6184,3.6212,3.6212,3.6225,3.6217,3.6217,3.622,3.6214,3.6231,3.6233,3.6243,3.6215,3.6243,3.6237,3.6243,3.6243,3.6242,3.6209,3.6208,3.6207,3.6206,0,3.6092,3.6105,3.6107,3.6114,3.6116,3.6121,3.6129,3.6126,3.6157,3.6156,3.6155,3.6157,3.616,3.616,3.6165,3.6173,3.6194,3.6197,3.6192,3.6185,3.6178,3.6182,3.6269,3.6199,3.62,3.62,3.62,3.6201,3.6036,3.6029,3.6045,3.6047,3.6056,3.6063,3.6058,3.6074,3.6075,3.608,3.6096,3.6093,3.6105,3.6114,3.612,3.6117,3.6131,3.6123,3.6122,3.6119,3.6115,3.6179,3.6118,3.6118,3.6119,3.6119,3.6119,0,3.5966,3.5978,3.598,3.5991,3.5992,3.6014,3.6024,3.6023,3.6021,3.6031,3.6033,3.6032,3.6033,3.605,3.6053,3.6047,3.6057,3.6047,3.6048,3.6049,3.6103,3.6107,3.6039,3.6039,3.6039,3.6039,3.6039,3.6039,3.593,3.592,3.5934,3.5929,3.5941,3.5939,3.5943,3.5949,3.5958,3.5956,3.5958,3.597,3.5983,3.5987,3.5989,3.5994,3.5993,3.598,3.5988,3.6038,3.6045,3.6053,3.6057,3.5979,3.5979,3.5935,3.5934,3.5934]}]]